Tracking 19969 objects as of 13-Nov-2019
Live streaming from Space Station
objects crossing your sky now
Track the group of recently launched Starlink satellites

DMSP 5D-2 F9 DEB

Track DMSP 5D-2 F9 DEB now!
10-day predictions


NORAD ID: 39046
Int'l Code: 1988-006M
Perigee: 789.8 km
Apogee: 910.2 km
Inclination: 98.7 °
Period: 101.8 minutes
Semi major axis: 7221 km
RCS: 0.0338 m2 (small)
Launch date: February 3, 1988
Source: United States (US)
Launch site: AIR FORCE WESTERN TEST RANGE (AFWTR)

Note: This is SATELLITE DEBRIS
aabbcc
Your satellite tracking list
Your tracking list is empty




NASA's NSSDC Master Catalog

Two Line Element Set (TLE):
1 39046U 88006M   19316.55134814  .00000448  00000-0  24572-3 0  9994
2 39046  98.6782 163.4322 0083361  55.2234 333.5980 14.14835213355092
Source of the keplerian elements: AFSPC